AirNav   Air Wisconsin Up To $57,000 Bonus
 
 994 users online  

FD71 O'Brien Airpark East/West
Branford, Florida, USA

GOING TO BRANFORD?


FAA INFORMATION EFFECTIVE 19 MAY 2022

Location

FAA Identifier: FD71
Lat/Long: 30-02-54.0000N 082-59-02.0000W
30-02.900000N 082-59.033333W
30.0483333,-82.9838889
(estimated)
Elevation: 55 ft. / 17 m (estimated)
Variation: 02W (1985)
From city: 6 miles NW of BRANFORD, FL
Time zone: UTC -4 (UTC -5 during Standard Time)
Zip code: 32071

Airport Operations

Airport use: Private use. Permission required prior to landing
Activation date: 07/1986
Control tower: no
ARTCC: JACKSONVILLE CENTER
FSS: GAINESVILLE FLIGHT SERVICE STATION
Attendance: UNATNDD
Wind indicator: yes
Segmented circle: no

Airport Communications

WX AWOS-3 at 24J (15 nm N): 118.225 (386-362-1731)

Nearby radio navigation aids

VOR radial/distance  VOR name  Freq  Var
CTYr009/27.2CROSS CITY VORTAC112.0002W
TAYr222/35.3TAYLOR VORTAC112.9003W

 
NDB name  Hdg/Dist  Freq  Var  ID
LAKE CITY252/22.620403WLCQ .-.. -.-. --.-

Airport Services

Runway Information

Runway 18/36

Dimensions: 2400 x 100 ft. / 732 x 30 m
Surface: turf, in good condition
RUNWAY 18  RUNWAY 36
Traffic pattern: leftleft

Airport Ownership and Management from official FAA records

Ownership: Privately-owned
Owner: O'BRIEN AIRPARK ASSOCIATION
PO BOX 315
O'BRIEN, FL 32071
Phone (386) 935-2042
Manager: CLYDE PENDERFRAFF
22249 117 TH DRIVE
O'BRIEN, FL 32071
Phone (386) 935-2042

Airport Operational Statistics

Aircraft based on the field: 16
Single engine airplanes: 16
    

Additional Remarks

CTN:LOW FLYING MILITARY ACFT IN VICINITY OF ARPT.
FOR CD CTC JACKSONVILLE ARTCC AT 904-845-1592.

Instrument Procedures

There are no published instrument procedures at FD71.

Some nearby airports with instrument procedures:

24J - Suwannee County Airport (15 nm N)
KLCQ - Lake City Gateway Airport (23 nm E)
KCTY - Cross City Airport (26 nm S)
KFPY - Perry-Foley Airport (31 nm W)
KGNV - Gainesville Regional Airport (43 nm SE)
 
Loc | Ops | Rwys | IFR | FBO | Links
Com | Nav | Svcs | Stats | Notes
Area around FD71 (O'Brien Airpark East/West)
 
Road maps at: MapQuest Bing Google
 
Aerial photo
WARNING: Photo may not be current or correct
Aerial photo of FD71 (O'Brien Airpark East/West)
Do you have a better or more recent aerial photo of O'Brien Airpark East/West that you would like to share? If so, please send us your photo.

 
Sectional chart

 
Airport distance calculator
Flying to O'Brien Airpark East/West? Find the distance to fly.

From to FD71

Sunrise and sunset
Times for 27-May-2022
 Local
(UTC-4)
 Zulu
(UTC)
Morning civil twilight06:0710:07
Sunrise06:3410:34
Sunset20:2500:25
Evening civil twilight20:5100:51

Current date and time
Zulu (UTC)  27-May-2022 12:47:24
Local (UTC-4)  27-May-2022 08:47:24
 
METAR
K24J 
15nm N 
271235Z AUTO 00000KT 10SM BKN014 OVC023 23/23 A2998 RMK A01
KLCQ 
23nm E 
271235Z AUTO 19007KT 10SM SCT027 23/22 A2999 RMK AO2 LTG DSNT SW
KCTY 
31nm S 
271235Z AUTO 20006KT 10SM SCT018 BKN023 BKN031 25/24 A2999 RMK AO2 LTG DSNT SW T02510245
TAF
KGNV 
42nm SE 
271156Z 2712/2812 21008KT P6SM VCSH SCT025 BKN040 BKN100 TEMPO 2713/2716 4SM SHRA BKN025 OVC040 FM271600 22012KT 6SM SHRA VCTS SCT020 BKN035CB OVC050 TEMPO 2716/2720 VRB20G30KT 2SM +TSRA BKN020CB OVC035 FM272000 23010KT 6SM SHRA VCTS SCT020 BKN035CB OVC050 FM280000 22008KT P6SM VCSH SCT025 BKN040 BKN100 FM280400 23004KT 6SM BR FEW025 SCT100 BKN200 FM280900 00000KT 3SM BR SCT008 BKN015
KVLD 
46nm N 
271120Z 2712/2812 20006KT 6SM SHRA VCTS BKN070CB TEMPO 2712/2715 4SM TSRA SCT008 OVC030CB FM271800 22006KT P6SM VCSH SCT050 FM280100 VRB02KT P6SM FEW250
NOTAMs
Click for the latest NOTAMs
NOTAMs are issued by the DoD/FAA and will open in a separate window not controlled by AirNav.

 

 
 

Would you like to see your business listed on this page?

 If your business provides an interesting product or service to pilots, flight crews, aircraft, or users of the O'Brien Airpark East/West, you should consider listing it here.  To start the listing process, click on the button below
 
Add a business
 

Other Pages about O'Brien Airpark East/West

Update a link
 
Copyright © AirNav, LLC. All rights reserved. Privacy Policy  Contact